Weather Roundup
Issued by NWS

Home | Current Version | Previous Version | Text Only | Print | Product List | Glossary On
Versions: 1 2 3 4 5 6 7 8 9 10 11 12 13 14 15 16 17 18 19 20 21 22 23 24 25 26 27 28 29 30 31 32 33 34 35 36 37 38 39 40 41 42 43 44 45 46 47 48 49 50
000
NZUS93 KARX 180810
HRRWXR

CURRENT HOURLY OBSERVATIONS ACROSS
MUCH OF THE UPPER MISSISSIPPI VALLEY
NATIONAL WEATHER SERVICE LA CROSSE WI
300 AM CDT FRI APR 18 2014


...SOUTHEAST MINNESOTA...


CITY           SKY/WX    TMP DP  RH WIND       PRES   REMARKS
ROCHESTER      CLEAR     30  25  81 SW3       30.31S
ROCHESTER/MAYO FAIR      29  26  86 CALM      30.32R
WINONA         CLEAR     30  28  93 CALM      30.34S
AUSTIN         CLEAR     27  27 100 CALM      30.31S FOG
ALBERT LEA       N/A    N/A N/A N/A MISG      30.31S
DODGE CENTER   CLEAR     30  30 100 CALM      30.31R FOG
PRESTON        CLEAR     30  27  86 CALM      30.31S
OWATONNA       CLEAR     28  27  93 CALM      30.32R FOG
FARIBAULT      CLEAR     28  25  86 CALM      30.32S HAZE
$$

...ELSEWHERE IN MINNESOTA...


CITY           SKY/WX    TMP DP  RH WIND       PRES   REMARKS
MINNEAPOLIS    CLEAR     29  25  85 CALM      30.33S
INTNL FALLS    CLEAR     18  15  88 CALM      30.32R
DULUTH         MOCLDY    26  19  74 CALM      30.30S
RED WING       CLEAR     25  25 100 CALM      30.33S FOG
REDWOOD FALLS  CLOUDY    31  28  89 E3        30.29F
MANKATO        MOCLDY    30  25  80 NE5       30.32S WCI  25
WORTHINGTON    MOCLDY    30  25  80 E6        30.28S WCI  24
FAIRMONT       PTCLDY    28  25  86 CALM      30.32S
$$

...SOUTHWEST WISCONSIN...


CITY           SKY/WX    TMP DP  RH WIND       PRES   REMARKS
LA CROSSE      CLEAR     34  26  72 NE3       30.32S
PRAIRIE DU CHI CLEAR     29  27  92 CALM      30.32S
BOSCOBEL       CLEAR     29  26  89 CALM      30.32F FOG
LONE ROCK      PTCLDY    31  28  89 CALM      30.31S
PLATTEVILLE    CLEAR     30  28  91 N3        30.30S
FORT MC COY    CLEAR     28  25  87 CALM      30.33S
CAMP DOUGLAS   MOCLDY    30  29  99 N3        30.31S
VIROQUA        FAIR      31  28  88 N5        30.30R WCI  26
WIS DELLS      PTCLDY    29  28  94 CALM      30.29F
$$

...ELSEWHERE IN WISCONSIN...


CITY           SKY/WX    TMP DP  RH WIND       PRES   REMARKS
MILWAUKEE      MOCLDY    40  33  76 NW7       30.29S
MADISON        CLEAR     31  29  92 NW5       30.30S WCI  26
GREEN BAY      CLOUDY    36  31  82 NW6       30.30R WCI  31
EAU CLAIRE     CLEAR     24  22  91 CALM      30.32F
BLACK RVR FLS  FAIR      23  23 100 CALM      30.32F
MEDFORD        CLEAR     26  24  89 CALM      30.29S
WAUSAU         MOCLDY    32  24  72 N5        30.28S WCI  27
WIS RAPIDS     CLOUDY    34  26  72 N8        30.32S WCI  27
MARSHFIELD     MOCLDY    32  25  75 N3        30.30S
RICE LAKE      PTCLDY    22  20  95 CALM      30.34S FOG
$$

...NORTHEAST IOWA...


CITY           SKY/WX    TMP DP  RH WIND       PRES   REMARKS
WATERLOO       CLEAR     28  25  88 N3        30.31F
DUBUQUE        CLEAR     31  28  89 N9        30.29S WCI  23
DECORAH        CLEAR     28  28 100 CALM      30.30S FOG
MASON CITY     FOG       25  24  96 CALM      30.31F VSB 1/4
CHARLES CITY   CLEAR     30  27  86 NE5       30.31S WCI  25
OELWEIN        CLEAR    N/A N/A N/A N5        30.31S
$$

...ELSEWHERE IN IOWA...


CITY           SKY/WX    TMP DP  RH WIND       PRES   REMARKS
DES MOINES     PTCLDY    38  30  73 E6        30.30S WCI  33
IOWA CITY      CLEAR     35  30  82 N6        30.31S WCI  30
FORT DODGE     CLEAR     28  25  86 E6        30.30S WCI  22
MARSHALLTOWN   CLEAR     31  28  89 NE7       30.29F WCI  24
CEDAR RAPIDS   CLEAR     30  25  81 N9        30.29S WCI  22
$$

...NORTHERN ILLINOIS...


CITY           SKY/WX    TMP DP  RH WIND       PRES   REMARKS
CHICAGO-OHARE  CLOUDY    44  36  73 CALM      30.24F
DUPAGE         MOCLDY    42  36  79 NW3       30.24F
CHICAGO-MIDWAY CLOUDY    49  39  68 CALM      30.24F
MOLINE         CLEAR     39  32  76 N3        30.29S
ROCKFORD       PTCLDY    39  32  76 N10       30.29F WCI  32
STERLING       CLEAR     37  32  81 N6        30.28S WCI  33
PEORIA         PTCLDY    45  35  68 NW3       30.28S
$$

NOTE: "FAIR" INDICATES FEW OR NO CLOUDS BELOW 12,000 FEET WITH NO
SIGNIFICANT WEATHER AND/OR OBSTRUCTIONS TO VISIBILITY. WIND
SPEEDS ARE IN MILES-PER-HOUR.



USA.gov is the U.S. government's official web portal to all federal, state and local government web resources and services.